OPS 7034 (TRANSIT 18)

Satellite information

Favourite Embed

Satellite Type and Status

PAYLOADIN ORBIT

Key statistics

Satellite OPS 7034 (TRANSIT 18) at a glance.

Uptime

21056

Days in orbit

Revolutions

≈ 13.5

Per day

Orbit

SSO

Sun Synchronous Orbit

Inclination

90.0

Latest

Satellite identification and parameters

Extended collection of information and parameters for OPS 7034 (TRANSIT 18).

Object identification

Identified? True

Debris? False

Object name: OPS 7034 (TRANSIT 18)

International designator: 1968-012A

Object number (NORAD): 3133

Object ID (CCSDS): 3133

Country: UNITED STATES OF AMERICA (US)

Current information (Y/N): Y

RCS size: LARGE

Orbital parameters

Period: 106.544 minutes

Inclination: 90.0214 deg

SMA: 7444.697 km

Apoapsis: 1120.54 km

Periapsis: 1012.584 km

RAAN: 273.5176 deg

Eccentricy: 0.00725049

Argument of periapsis: 313.0332 deg

Mean anomaly: 109.0193 deg

Mean motion: 13.51550311 rev/day

Mean motion (dot): 0.00000152 rev/day2

B* drag term: 0.00021608617 1/REarth

Two-line elements (TLE)

Creation date: Oct. 25, 2025, 3:11 a.m.

Reference frame: TEME

Reference center: EARTH

Epoch: Oct. 24, 2025, 11:50 p.m. UTC

TLE line 0: 0 OPS 7034 (TRANSIT 18)

TLE line 1: 1 03133U 68012A 25297.99347573 .00000152 00000-0 21609-3 0 9998

TLE line 2: 2 03133 90.0214 273.5176 0072505 313.0332 109.0193 13.51550311562600

Live tracking on map

Real-time ground track for satellite OPS 7034 (TRANSIT 18).

In-orbit conjunctions

There are no conjunctions computed for OPS 7034 (TRANSIT 18), at the moment. Check back to stay up to date, as we update our databases every day.

Go to all conjunctions

Associated space launch

The Transit-O series of satellites that closely followed the design of Transit 5C-1 were also called “Oscars” (Oscar is the phonetic alphabet for “O”, i. e., operational). They were also called NNS (Navy Navigation Satellite) or shortened NavSat.

OPS 7034 (TRANSIT 18) was lifted into orbit during the mission ‘Scout A | Transit-O 18’, on board a Scout A space rocket.

The launch took place on March 2, 1968, 3:55 a.m. from Space Launch Complex 5.

For more information about the launch, click the button.

Launch to space Scout A | Transit-O 18
Scout A | Transit-O 18

Agency: N/A

Status: Launch Successful

Launch date: March 2, 1968, 3:55 a.m. UTC

Rocket: Scout A

Launch pad: Space Launch Complex 5

Location: Vandenberg SFB, CA, USA

...

Latest news about this satellite

There are no fresh news available about this satellite. Check back as we update our databases every day.


Newsletter sign-up

Weekly statistics, charts and insights to help you stay on top of the space industry.